Location: Saint Louis
(38.6272°N, 90.1978°W)
Time: 01:03:32
(UTC-05:00)

ISS - Pass Details

Date: 21 February 2013
Orbit: 402 x 404 km, 51.6° (Epoch: 23 May)

Event Time Altitude Azimuth Distance (km) Brightness Sun altitude
Rises 18:49:28 0° 311° (NW) 2,340 1.3 -13.2°
Reaches altitude 10° 18:51:33 10° 314° (NW) 1,484 0.2 -13.6°
Maximum altitude 18:54:52 64° 37° (NE) 467 -3.3 -14.2°
Enters shadow 18:56:26 28° 111° (ESE) 823 -2.3 -14.5°
